AFR43GH LFPG-OMDB

Flight info

Callsign AFR43GH
Flight time 5h 59m
Altitude 35000
Route LANVI DCT BEGAR DCT TRA DCT GAMSA DCT BIRGI DCT INGID DCT GOTAR DCT INVED DCT ARTAT UP975 APTOX/N0484F370 UP975 EZS UL614 OTKEP UM688 RATVO M688 SIDAD P975 SESRU M677 VUTEB
Aircraft B77W/H-SDE1E2E3FGHIJ2J3J4J5M1RWXY/LB1D1

Departure

Time 2026-04-23 09:06
Airport Charles de Gaulle International Airport (LFPG)

Arrival

Time 2026-04-23 15:06
Airport Dubai International Airport (OMDB)
Time Latitude Longitude Altitude Speed Heading
2026-04-23 08:41 49.00634 2.58593 368 ft 0 kts 266°
2026-04-23 08:49 49.00634 2.58601 368 ft 2 kts 265°
2026-04-23 08:49 49.00634 2.58626 366 ft 2 kts 274°
2026-04-23 08:50 49.00631 2.58650 364 ft 2 kts 289°
2026-04-23 08:50 49.00624 2.58673 364 ft 2 kts 305°
2026-04-23 08:50 49.00613 2.58691 367 ft 2 kts 323°
2026-04-23 08:50 49.00599 2.58705 366 ft 2 kts 338°
2026-04-23 08:51 49.00584 2.58712 365 ft 2 kts 349°
2026-04-23 08:51 49.00572 2.58715 366 ft 1 kts 354°
2026-04-23 08:51 49.00571 2.58715 366 ft 0 kts 354°
2026-04-23 08:53 49.00576 2.58715 359 ft 2 kts 356°
2026-04-23 08:54 49.00606 2.58711 362 ft 7 kts 355°
2026-04-23 08:54 49.00667 2.58703 364 ft 11 kts 354°
2026-04-23 08:54 49.00756 2.58692 364 ft 15 kts 356°
2026-04-23 08:54 49.00863 2.58642 366 ft 18 kts 341°
2026-04-23 08:55 49.00927 2.58488 365 ft 20 kts 269°
2026-04-23 08:55 49.00917 2.58254 362 ft 24 kts 265°
2026-04-23 08:55 49.00901 2.57983 359 ft 27 kts 265°
2026-04-23 08:55 49.00884 2.57682 362 ft 30 kts 265°
2026-04-23 08:56 49.00868 2.57345 359 ft 33 kts 265°
2026-04-23 08:56 49.00827 2.56987 359 ft 0 kts 318°
2026-04-23 08:56 49.00827 2.56986 359 ft 0 kts 318°
2026-04-23 08:56 49.00840 2.56906 366 ft 21 kts 270°
2026-04-23 08:57 49.00828 2.56636 361 ft 26 kts 265°
2026-04-23 08:57 49.00808 2.56360 366 ft 26 kts 262°
2026-04-23 08:57 49.00781 2.56087 365 ft 26 kts 262°
2026-04-23 08:57 49.00756 2.55813 359 ft 26 kts 262°
2026-04-23 08:58 49.00733 2.55543 365 ft 26 kts 263°
2026-04-23 08:58 49.00794 2.55317 368 ft 26 kts 341°
2026-04-23 08:58 49.00969 2.55245 367 ft 26 kts 343°
2026-04-23 08:58 49.01143 2.55167 367 ft 26 kts 343°
2026-04-23 08:59 49.01208 2.55125 368 ft 0 kts 320°
2026-04-23 08:59 49.01229 2.55071 365 ft 18 kts 290°
2026-04-23 08:59 49.01391 2.54917 364 ft 40 kts 351°
2026-04-23 08:59 49.01667 2.54874 359 ft 39 kts 356°
2026-04-23 09:00 49.01831 2.54761 359 ft 0 kts 291°
2026-04-23 09:00 49.01836 2.54723 362 ft 14 kts 277°
2026-04-23 09:00 49.01825 2.54420 361 ft 37 kts 265°
2026-04-23 09:00 49.01806 2.54029 362 ft 36 kts 264°
2026-04-23 09:01 49.01785 2.53664 365 ft 34 kts 265°
2026-04-23 09:01 49.01764 2.53314 360 ft 32 kts 266°
2026-04-23 09:01 49.01789 2.52995 366 ft 30 kts 290°
2026-04-23 09:01 49.01823 2.52686 361 ft 30 kts 264°
2026-04-23 09:02 49.01803 2.52369 365 ft 30 kts 265°
2026-04-23 09:02 49.01854 2.52073 368 ft 30 kts 290°
2026-04-23 09:02 49.01861 2.51762 365 ft 30 kts 264°
2026-04-23 09:02 49.01847 2.51515 359 ft 2 kts 265°
2026-04-23 09:03 49.01845 2.51470 367 ft 7 kts 265°
2026-04-23 09:03 49.01846 2.51346 366 ft 17 kts 286°
2026-04-23 09:03 49.01968 2.51265 366 ft 24 kts 18°
2026-04-23 09:03 49.02071 2.51429 364 ft 2 kts 82°
2026-04-23 09:05 49.02080 2.51551 364 ft 46 kts 85°
2026-04-23 09:05 49.02137 2.52614 361 ft 152 kts 85°
2026-04-23 09:06 49.02244 2.54581 971 ft 195 kts 84°
2026-04-23 09:06 49.02340 2.56538 2773 ft 184 kts 87°
2026-04-23 09:06 49.02440 2.58616 3384 ft 210 kts 86°
2026-04-23 09:06 49.02563 2.60943 3933 ft 226 kts 86°
2026-04-23 09:07 49.02700 2.63400 4699 ft 237 kts 86°
2026-04-23 09:07 49.02844 2.65944 5544 ft 244 kts 85°
2026-04-23 09:07 49.02982 2.68549 6424 ft 249 kts 86°
2026-04-23 09:07 49.03118 2.71171 7302 ft 252 kts 86°
2026-04-23 09:08 49.03252 2.73877 8137 ft 257 kts 86°
2026-04-23 09:08 49.03385 2.76628 8978 ft 262 kts 86°
2026-04-23 09:08 49.03520 2.79441 9854 ft 267 kts 86°
2026-04-23 09:08 49.03655 2.82241 10649 ft 272 kts 85°
2026-04-23 09:09 49.03797 2.85201 11093 ft 292 kts 85°
2026-04-23 09:09 49.03951 2.88422 11294 ft 319 kts 86°
2026-04-23 09:09 49.04120 2.91976 11529 ft 346 kts 85°
2026-04-23 09:09 49.04159 2.95704 11972 ft 357 kts 97°
2026-04-23 09:10 49.03594 2.99401 12693 ft 365 kts 105°
2026-04-23 09:10 49.02186 3.06953 14563 ft 373 kts 104°
2026-04-23 09:10 49.01496 3.10792 15409 ft 376 kts 104°
2026-04-23 09:11 49.00824 3.14609 16275 ft 380 kts 104°
2026-04-23 09:11 49.00139 3.18539 17085 ft 384 kts 104°
2026-04-23 09:11 48.99453 3.22506 17928 ft 389 kts 104°
2026-04-23 09:11 48.98759 3.26516 18688 ft 394 kts 104°
2026-04-23 09:12 48.98056 3.30574 19341 ft 400 kts 104°
2026-04-23 09:12 48.97348 3.34661 20047 ft 404 kts 104°
2026-04-23 09:12 48.96627 3.38808 20820 ft 405 kts 105°
2026-04-23 09:12 48.95900 3.42979 21510 ft 410 kts 105°
2026-04-23 09:13 48.95163 3.47204 22183 ft 414 kts 105°
2026-04-23 09:13 48.94427 3.51405 22884 ft 416 kts 106°
2026-04-23 09:13 48.93706 3.55676 23688 ft 416 kts 103°
2026-04-23 09:13 48.93281 3.60053 24261 ft 421 kts 97°
2026-04-23 09:14 48.93065 3.64520 24749 ft 426 kts 95°
2026-04-23 09:14 48.92909 3.68993 25258 ft 429 kts 95°
2026-04-23 09:14 48.92744 3.73546 25787 ft 432 kts 95°
2026-04-23 09:14 48.92549 3.78131 26310 ft 435 kts 96°
2026-04-23 09:15 48.92325 3.82736 26810 ft 438 kts 96°
2026-04-23 09:15 48.92081 3.87382 27285 ft 441 kts 96°
2026-04-23 09:15 48.91824 3.92055 27758 ft 444 kts 96°
2026-04-23 09:15 48.91565 3.96698 28201 ft 448 kts 96°
2026-04-23 09:16 48.91298 4.01443 28661 ft 450 kts 96°
2026-04-23 09:16 48.91030 4.06209 29096 ft 453 kts 96°
2026-04-23 09:16 48.90760 4.11007 29502 ft 456 kts 96°
2026-04-23 09:16 48.90486 4.15827 29866 ft 459 kts 97°
2026-04-23 09:17 48.90181 4.20606 30191 ft 459 kts 100°
2026-04-23 09:17 48.89327 4.25288 30412 ft 461 kts 116°
2026-04-23 09:17 48.87737 4.29485 30646 ft 459 kts 121°
2026-04-23 09:17 48.86098 4.33677 30858 ft 462 kts 120°
2026-04-23 09:18 48.84504 4.37920 31378 ft 455 kts 119°
2026-04-23 09:18 48.82998 4.42009 32236 ft 446 kts 119°
2026-04-23 09:18 48.81472 4.46180 32369 ft 453 kts 118°
2026-04-23 09:18 48.79935 4.50384 32489 ft 458 kts 119°
2026-04-23 09:19 48.78385 4.54614 32789 ft 458 kts 118°
2026-04-23 09:19 48.76833 4.58836 33156 ft 458 kts 118°
2026-04-23 09:19 48.75298 4.62999 33461 ft 459 kts 118°
2026-04-23 09:19 48.73733 4.67233 33734 ft 460 kts 118°
2026-04-23 09:20 48.72160 4.71478 34008 ft 461 kts 118°
2026-04-23 09:20 48.70586 4.75718 34313 ft 461 kts 118°
2026-04-23 09:20 48.69030 4.79904 34614 ft 459 kts 118°
2026-04-23 09:20 48.67481 4.84059 35261 ft 450 kts 118°
2026-04-23 09:21 48.65936 4.88203 35353 ft 453 kts 118°
2026-04-23 09:21 48.62828 4.96522 35344 ft 456 kts 118°
2026-04-23 09:22 48.59697 5.04872 35338 ft 452 kts 119°
2026-04-23 09:22 48.56616 5.13063 35340 ft 450 kts 119°
2026-04-23 09:23 48.53514 5.21284 35340 ft 449 kts 119°
2026-04-23 09:23 48.50412 5.29480 35337 ft 449 kts 119°
2026-04-23 09:24 48.47321 5.37623 35334 ft 450 kts 119°
2026-04-23 09:24 48.44195 5.45832 35337 ft 451 kts 119°
2026-04-23 09:25 48.41065 5.54027 35331 ft 452 kts 119°
2026-04-23 09:25 48.37918 5.62241 35335 ft 452 kts 119°
2026-04-23 09:26 48.34791 5.70382 35340 ft 450 kts 119°
2026-04-23 09:26 48.31657 5.78520 35338 ft 448 kts 118°
2026-04-23 09:27 48.29334 5.87144 35349 ft 445 kts 108°
2026-04-23 09:27 48.27523 5.96028 35352 ft 445 kts 107°
2026-04-23 09:28 48.25678 6.04892 35353 ft 447 kts 108°
2026-04-23 09:28 48.23752 6.13782 35347 ft 447 kts 108°
2026-04-23 09:29 48.21807 6.22593 35340 ft 447 kts 108°
2026-04-23 09:29 48.19840 6.31447 35339 ft 447 kts 108°
2026-04-23 09:30 48.17877 6.40254 35327 ft 447 kts 108°
2026-04-23 09:30 48.15904 6.49080 35322 ft 445 kts 108°
2026-04-23 09:31 48.13931 6.57867 35315 ft 444 kts 108°
2026-04-23 09:31 48.11967 6.66580 35311 ft 443 kts 109°
2026-04-23 09:32 48.09999 6.75271 35312 ft 442 kts 109°
2026-04-23 09:32 48.08017 6.83995 35301 ft 442 kts 108°
2026-04-23 09:33 48.06027 6.92710 35321 ft 442 kts 108°
2026-04-23 09:33 48.04040 7.01382 35342 ft 442 kts 109°
2026-04-23 09:34 48.02038 7.10084 35353 ft 443 kts 109°
2026-04-23 09:34 48.00042 7.18724 35361 ft 443 kts 109°
2026-04-23 09:35 47.98022 7.27429 35378 ft 444 kts 108°
2026-04-23 09:35 47.96331 7.34696 35370 ft 444 kts 108°
2026-04-23 09:36 47.94300 7.43391 35358 ft 444 kts 109°
2026-04-23 09:36 47.92268 7.52059 35329 ft 443 kts 109°
2026-04-23 09:37 47.90214 7.60735 35330 ft 443 kts 109°
2026-04-23 09:37 47.88062 7.69311 35321 ft 443 kts 110°
2026-04-23 09:38 47.85871 7.77908 35324 ft 443 kts 110°
2026-04-23 09:38 47.83699 7.86450 35321 ft 443 kts 110°
2026-04-23 09:39 47.81514 7.95043 35315 ft 444 kts 110°
2026-04-23 09:39 47.79335 8.03591 35322 ft 444 kts 110°
2026-04-23 09:40 47.77131 8.12200 35319 ft 444 kts 110°
2026-04-23 09:40 47.74926 8.20783 35324 ft 444 kts 110°
2026-04-23 09:41 47.72719 8.29343 35320 ft 444 kts 110°
2026-04-23 09:41 47.70516 8.37861 35334 ft 444 kts 110°
2026-04-23 09:42 47.68322 8.46388 35348 ft 444 kts 108°
2026-04-23 09:42 47.66360 8.54991 35354 ft 443 kts 107°
2026-04-23 09:43 47.64434 8.63703 35349 ft 444 kts 107°
2026-04-23 09:43 47.62520 8.72200 35349 ft 444 kts 108°
2026-04-23 09:44 47.60536 8.80881 35349 ft 444 kts 108°
2026-04-23 09:44 47.58556 8.89485 35334 ft 445 kts 108°
2026-04-23 09:45 47.56537 8.98222 35325 ft 445 kts 108°
2026-04-23 09:45 47.54535 9.06856 35331 ft 445 kts 108°
2026-04-23 09:46 47.52517 9.15525 35323 ft 446 kts 108°
2026-04-23 09:46 47.50491 9.24190 35323 ft 446 kts 107°
2026-04-23 09:47 47.48464 9.32830 35320 ft 445 kts 107°
2026-04-23 09:47 47.46426 9.41483 35349 ft 445 kts 108°
2026-04-23 09:48 47.44385 9.50122 35342 ft 445 kts 108°
2026-04-23 09:48 47.42349 9.58710 35349 ft 445 kts 107°
2026-04-23 09:49 47.40966 9.67584 35347 ft 443 kts 97°
2026-04-23 09:49 47.40534 9.76650 35337 ft 441 kts 91°
2026-04-23 09:50 47.40403 9.85641 35328 ft 441 kts 90°
2026-04-23 09:50 47.40257 9.94702 35302 ft 441 kts 91°
2026-04-23 09:51 47.40088 10.03748 35311 ft 441 kts 90°
2026-04-23 09:51 47.39906 10.12829 35289 ft 442 kts 91°
2026-04-23 09:52 47.39717 10.21836 35303 ft 442 kts 91°
2026-04-23 09:52 47.39518 10.30936 35289 ft 443 kts 91°
2026-04-23 09:53 47.39312 10.40043 35304 ft 443 kts 91°
2026-04-23 09:53 47.39099 10.49140 35303 ft 443 kts 90°
2026-04-23 09:54 47.38881 10.58182 35291 ft 444 kts 90°
2026-04-23 09:54 47.38652 10.67283 35292 ft 443 kts 90°
2026-04-23 09:55 47.38420 10.76344 35303 ft 442 kts 91°
2026-04-23 09:55 47.38179 10.85436 35311 ft 442 kts 91°
2026-04-23 09:56 47.37932 10.94449 35315 ft 442 kts 90°
2026-04-23 09:56 47.37678 11.03525 35320 ft 442 kts 90°
2026-04-23 09:57 47.37414 11.12608 35324 ft 442 kts 91°
2026-04-23 09:57 47.37147 11.21636 35330 ft 442 kts 91°
2026-04-23 09:58 47.36871 11.30721 35355 ft 443 kts 90°
2026-04-23 09:58 47.36585 11.39760 35345 ft 444 kts 91°
2026-04-23 09:59 47.36293 11.48892 35341 ft 443 kts 91°
2026-04-23 09:59 47.35996 11.57927 35347 ft 443 kts 91°
2026-04-23 10:00 47.35691 11.67030 35342 ft 444 kts 91°
2026-04-23 10:00 47.35377 11.76153 35337 ft 445 kts 91°
2026-04-23 10:01 47.35057 11.85252 35346 ft 446 kts 91°
2026-04-23 10:01 47.34727 11.94389 35346 ft 446 kts 91°
2026-04-23 10:02 47.34381 12.03552 35334 ft 447 kts 91°
2026-04-23 10:02 47.34027 12.12659 35332 ft 447 kts 91°
2026-04-23 10:03 47.33666 12.21832 35345 ft 446 kts 91°
2026-04-23 10:03 47.33302 12.30902 35329 ft 445 kts 91°
2026-04-23 10:04 47.32930 12.40019 35335 ft 445 kts 91°
2026-04-23 10:04 47.32548 12.49133 35336 ft 444 kts 91°
2026-04-23 10:05 47.32163 12.58188 35332 ft 445 kts 91°
2026-04-23 10:05 47.31771 12.67303 35325 ft 445 kts 91°
2026-04-23 10:06 47.31371 12.76365 35318 ft 446 kts 91°
2026-04-23 10:06 47.30959 12.85525 35305 ft 445 kts 91°
2026-04-23 10:07 47.30545 12.94585 35328 ft 445 kts 91°
2026-04-23 10:07 47.30121 13.03682 35318 ft 446 kts 91°
2026-04-23 10:08 47.29689 13.12822 35310 ft 446 kts 91°
2026-04-23 10:08 47.29252 13.21901 35312 ft 446 kts 91°
2026-04-23 10:09 47.28581 13.35601 35300 ft 445 kts 91°
2026-04-23 10:09 47.28127 13.44652 35306 ft 446 kts 91°
2026-04-23 10:10 47.27663 13.53781 35315 ft 446 kts 91°
2026-04-23 10:10 47.27197 13.62850 35286 ft 446 kts 91°
2026-04-23 10:11 47.26610 13.71950 35308 ft 447 kts 94°
2026-04-23 10:11 47.25739 13.81023 35315 ft 449 kts 95°
2026-04-23 10:12 47.24833 13.90098 35288 ft 450 kts 95°
2026-04-23 10:12 47.23933 13.99210 35279 ft 449 kts 95°
2026-04-23 10:13 47.23040 14.08271 35295 ft 449 kts 95°
2026-04-23 10:13 47.22135 14.17403 35264 ft 449 kts 95°
2026-04-23 10:14 47.21230 14.26457 35256 ft 450 kts 94°
2026-04-23 10:14 47.20310 14.35582 35251 ft 450 kts 94°
2026-04-23 10:15 47.19385 14.44690 35240 ft 450 kts 95°
2026-04-23 10:15 47.18459 14.53729 35234 ft 450 kts 95°
2026-04-23 10:16 47.17516 14.62863 35247 ft 451 kts 95°
2026-04-23 10:16 47.16568 14.71966 35236 ft 452 kts 95°
2026-04-23 10:17 47.15606 14.81127 35242 ft 452 kts 95°
2026-04-23 10:17 47.14638 14.90283 35238 ft 452 kts 95°
2026-04-23 10:18 47.13669 14.99360 35249 ft 452 kts 95°
2026-04-23 10:18 47.12689 15.08506 35211 ft 452 kts 95°
2026-04-23 10:19 47.11704 15.17591 35209 ft 453 kts 95°
2026-04-23 10:19 47.10705 15.26741 35211 ft 453 kts 95°
2026-04-23 10:20 47.09707 15.35820 35212 ft 453 kts 95°
2026-04-23 10:20 47.08692 15.44986 35204 ft 454 kts 95°
2026-04-23 10:21 47.07674 15.54101 35207 ft 455 kts 95°
2026-04-23 10:21 47.06644 15.63265 35213 ft 455 kts 95°
2026-04-23 10:22 47.05611 15.72387 35206 ft 455 kts 95°
2026-04-23 10:22 47.04565 15.81556 35216 ft 456 kts 95°
2026-04-23 10:23 47.03505 15.90770 35194 ft 457 kts 95°
2026-04-23 10:23 47.02448 15.99897 35203 ft 457 kts 95°
2026-04-23 10:24 47.01376 16.09096 35181 ft 457 kts 95°
2026-04-23 10:24 47.00302 16.18250 35182 ft 457 kts 95°
2026-04-23 10:25 46.98975 16.27379 35178 ft 460 kts 100°
2026-04-23 10:25 46.97593 16.34910 35204 ft 460 kts 100°
2026-04-23 10:26 46.95918 16.43969 35184 ft 460 kts 100°
2026-04-23 10:26 46.94251 16.53029 35202 ft 460 kts 100°
2026-04-23 10:27 46.92597 16.62030 35214 ft 460 kts 100°
2026-04-23 10:27 46.90928 16.71087 35203 ft 461 kts 100°
2026-04-23 10:28 46.89250 16.80146 35191 ft 461 kts 100°
2026-04-23 10:28 46.87563 16.89205 35189 ft 461 kts 100°
2026-04-23 10:29 46.85878 16.98207 35203 ft 461 kts 101°
2026-04-23 10:29 46.84176 17.07259 35190 ft 461 kts 101°
2026-04-23 10:30 46.82476 17.16256 35185 ft 461 kts 101°
2026-04-23 10:30 46.80760 17.25296 35181 ft 461 kts 101°
2026-04-23 10:31 46.79050 17.34260 35200 ft 461 kts 101°
2026-04-23 10:31 46.77327 17.43248 35189 ft 461 kts 101°
2026-04-23 10:32 46.75581 17.52316 35178 ft 462 kts 101°
2026-04-23 10:32 46.73844 17.61296 35173 ft 462 kts 101°
2026-04-23 10:33 46.72092 17.70307 35169 ft 462 kts 101°
2026-04-23 10:33 46.70327 17.79346 35173 ft 463 kts 101°
2026-04-23 10:34 46.68561 17.88349 35164 ft 464 kts 101°
2026-04-23 10:34 46.66776 17.97403 35162 ft 464 kts 101°
2026-04-23 10:35 46.64997 18.06385 35157 ft 464 kts 102°
2026-04-23 10:35 46.63194 18.15442 35157 ft 465 kts 102°
2026-04-23 10:36 46.61400 18.24420 35153 ft 465 kts 102°
2026-04-23 10:36 46.59581 18.33475 35144 ft 465 kts 102°
2026-04-23 10:37 46.57762 18.42498 35141 ft 464 kts 102°
2026-04-23 10:37 46.55944 18.51467 35152 ft 465 kts 102°
2026-04-23 10:38 46.54115 18.60452 35139 ft 465 kts 102°
2026-04-23 10:38 46.52273 18.69458 35133 ft 465 kts 102°
2026-04-23 10:39 46.50424 18.78460 35124 ft 464 kts 102°
2026-04-23 10:39 46.48580 18.87398 35133 ft 464 kts 102°
2026-04-23 10:40 46.46718 18.96384 35122 ft 464 kts 102°
2026-04-23 10:40 46.44847 19.05371 35113 ft 464 kts 102°
2026-04-23 10:41 46.42979 19.14304 35125 ft 464 kts 102°
2026-04-23 10:41 46.41104 19.23234 35132 ft 464 kts 102°
2026-04-23 10:42 46.39214 19.32194 35102 ft 465 kts 102°
2026-04-23 10:42 46.37324 19.41116 35109 ft 465 kts 103°
2026-04-23 10:43 46.35415 19.50087 35103 ft 465 kts 103°
2026-04-23 10:43 46.33497 19.59059 35122 ft 465 kts 103°
2026-04-23 10:44 46.31582 19.67979 35104 ft 466 kts 103°
2026-04-23 10:44 46.29650 19.76942 35093 ft 466 kts 103°
2026-04-23 10:45 46.27722 19.85848 35094 ft 466 kts 103°
2026-04-23 10:45 46.25777 19.94790 35085 ft 465 kts 103°
2026-04-23 10:46 46.23830 20.03706 35082 ft 465 kts 103°
2026-04-23 10:46 46.21871 20.12643 35082 ft 465 kts 103°
2026-04-23 10:47 46.19921 20.21497 35081 ft 465 kts 103°
2026-04-23 10:47 46.17953 20.30404 35090 ft 465 kts 103°
2026-04-23 10:48 46.15954 20.39256 35069 ft 467 kts 106°
2026-04-23 10:48 46.13203 20.47816 35086 ft 471 kts 112°
2026-04-23 10:49 46.10234 20.56187 35085 ft 472 kts 112°
2026-04-23 10:49 46.07251 20.64630 35083 ft 472 kts 112°
2026-04-23 10:50 46.04277 20.73092 35093 ft 473 kts 112°
2026-04-23 10:50 46.01305 20.81543 35080 ft 473 kts 112°
2026-04-23 10:51 45.98348 20.89932 35081 ft 472 kts 112°
2026-04-23 10:51 45.95369 20.98351 35081 ft 472 kts 112°
2026-04-23 10:52 45.92397 21.06726 35085 ft 471 kts 112°
2026-04-23 10:52 45.89406 21.15123 35078 ft 471 kts 112°
2026-04-23 10:53 45.86413 21.23504 35077 ft 471 kts 112°
2026-04-23 10:53 45.83436 21.31814 35077 ft 470 kts 112°
2026-04-23 10:54 45.80440 21.40151 35084 ft 470 kts 112°
2026-04-23 10:54 45.77429 21.48501 35078 ft 471 kts 112°
2026-04-23 10:55 45.74416 21.56834 35083 ft 471 kts 112°
2026-04-23 10:55 45.71402 21.65141 35081 ft 471 kts 112°
2026-04-23 10:56 45.68390 21.73420 35081 ft 471 kts 112°
2026-04-23 10:56 45.65359 21.81722 35088 ft 471 kts 112°
2026-04-23 10:57 45.62315 21.90037 35083 ft 471 kts 112°
2026-04-23 10:57 45.59288 21.98281 35081 ft 471 kts 112°
2026-04-23 10:58 45.56224 22.06599 35079 ft 471 kts 112°
2026-04-23 10:58 45.53180 22.14838 35081 ft 471 kts 112°
2026-04-23 10:59 45.50118 22.23101 35079 ft 471 kts 112°
2026-04-23 10:59 45.47057 22.31334 35104 ft 471 kts 112°
2026-04-23 11:00 45.43974 22.39602 35092 ft 471 kts 112°
2026-04-23 11:00 45.40898 22.47830 35078 ft 472 kts 112°
2026-04-23 11:01 45.37799 22.56091 35057 ft 473 kts 112°
2026-04-23 11:01 45.34688 22.64360 35071 ft 473 kts 112°
2026-04-23 11:02 45.31597 22.72551 35055 ft 473 kts 112°
2026-04-23 11:02 45.28473 22.80801 35047 ft 472 kts 112°
2026-04-23 11:03 45.25370 22.88978 35026 ft 472 kts 112°
2026-04-23 11:03 45.22255 22.97148 35041 ft 470 kts 112°
2026-04-23 11:04 45.19147 23.05288 35045 ft 468 kts 112°
2026-04-23 11:04 45.16046 23.13387 35024 ft 468 kts 112°
2026-04-23 11:05 45.12937 23.21484 35025 ft 467 kts 113°
2026-04-23 11:05 45.09821 23.29572 35019 ft 467 kts 113°
2026-04-23 11:06 45.05145 23.41665 35009 ft 468 kts 113°
2026-04-23 11:07 45.02009 23.49745 35010 ft 468 kts 113°
2026-04-23 11:07 44.98863 23.57830 35023 ft 469 kts 113°
2026-04-23 11:08 44.95721 23.65879 35011 ft 470 kts 113°
2026-04-23 11:08 44.92570 23.73930 35002 ft 470 kts 113°
2026-04-23 11:09 44.89397 23.82011 35003 ft 471 kts 113°
2026-04-23 11:09 44.86211 23.90102 35014 ft 471 kts 113°
2026-04-23 11:10 44.83017 23.98190 34994 ft 471 kts 114°
2026-04-23 11:10 44.79824 24.06250 34996 ft 471 kts 114°
2026-04-23 11:11 44.76645 24.14254 34999 ft 471 kts 114°
2026-04-23 11:11 44.73441 24.22301 35007 ft 471 kts 114°
2026-04-23 11:12 44.70230 24.30338 34996 ft 471 kts 114°
2026-04-23 11:12 44.67034 24.38313 34999 ft 470 kts 114°
2026-04-23 11:13 44.63811 24.46336 34990 ft 470 kts 114°
2026-04-23 11:13 44.60608 24.54287 35009 ft 471 kts 114°
2026-04-23 11:14 44.57916 24.60953 34994 ft 471 kts 114°
2026-04-23 11:14 44.54144 24.70265 34988 ft 472 kts 114°
2026-04-23 11:15 44.51438 24.76927 34987 ft 473 kts 114°
2026-04-23 11:15 44.48177 24.84933 34985 ft 473 kts 114°
2026-04-23 11:16 44.44917 24.92913 34976 ft 473 kts 114°
2026-04-23 11:16 44.41637 25.00922 34976 ft 474 kts 114°
2026-04-23 11:17 44.38363 25.08891 34975 ft 474 kts 114°
2026-04-23 11:17 44.35068 25.16892 34982 ft 474 kts 115°
2026-04-23 11:18 44.31769 25.24877 34980 ft 474 kts 115°
2026-04-23 11:18 44.28481 25.32816 34977 ft 474 kts 115°
2026-04-23 11:19 44.25174 25.40775 34986 ft 473 kts 115°
2026-04-23 11:19 44.21887 25.48665 34977 ft 472 kts 115°
2026-04-23 11:20 44.18575 25.56594 34968 ft 471 kts 115°
2026-04-23 11:20 44.15289 25.64438 34974 ft 471 kts 115°
2026-04-23 11:21 44.11980 25.72317 34977 ft 471 kts 115°
2026-04-23 11:21 44.08686 25.80140 34973 ft 471 kts 115°
2026-04-23 11:22 44.05354 25.88030 34961 ft 471 kts 115°
2026-04-23 11:22 44.02043 25.95849 34962 ft 472 kts 116°
2026-04-23 11:23 43.98701 26.03721 34979 ft 472 kts 116°
2026-04-23 11:23 43.95369 26.11545 34976 ft 473 kts 116°
2026-04-23 11:24 43.92005 26.19423 34973 ft 474 kts 116°
2026-04-23 11:24 43.88628 26.27312 34971 ft 475 kts 116°
2026-04-23 11:25 43.85251 26.35176 34968 ft 475 kts 116°
2026-04-23 11:25 43.81877 26.43012 34974 ft 475 kts 116°
2026-04-23 11:26 43.78472 26.50900 34974 ft 475 kts 116°
2026-04-23 11:26 43.75095 26.58704 34976 ft 474 kts 116°
2026-04-23 11:27 43.71699 26.66526 34977 ft 473 kts 117°
2026-04-23 11:27 43.68322 26.74285 34975 ft 473 kts 117°
2026-04-23 11:28 43.64912 26.82102 34973 ft 473 kts 117°
2026-04-23 11:28 43.61524 26.89848 34982 ft 473 kts 117°
2026-04-23 11:29 43.58107 26.97636 34974 ft 474 kts 117°
2026-04-23 11:29 43.54693 27.05398 34975 ft 474 kts 117°
2026-04-23 11:30 43.51261 27.13177 34986 ft 474 kts 117°
2026-04-23 11:30 43.47843 27.20910 34978 ft 475 kts 117°
2026-04-23 11:31 43.44393 27.28689 34980 ft 476 kts 117°
2026-04-23 11:31 43.40936 27.36463 34982 ft 476 kts 117°
2026-04-23 11:32 43.37480 27.44217 34972 ft 477 kts 118°
2026-04-23 11:32 43.34002 27.51999 34982 ft 477 kts 118°
2026-04-23 11:33 43.30512 27.59785 34965 ft 478 kts 118°
2026-04-23 11:33 43.27035 27.67524 34976 ft 478 kts 118°
2026-04-23 11:34 43.23521 27.75323 34968 ft 479 kts 118°
2026-04-23 11:34 43.20005 27.83105 34967 ft 480 kts 118°
2026-04-23 11:35 43.16497 27.90852 34974 ft 481 kts 118°
2026-04-23 11:35 43.12953 27.98656 34974 ft 482 kts 119°
2026-04-23 11:36 43.09412 28.06431 34966 ft 483 kts 119°
2026-04-23 11:36 43.05842 28.14250 34971 ft 484 kts 119°
2026-04-23 11:37 43.02281 28.22030 34988 ft 484 kts 119°
2026-04-23 11:37 42.98695 28.29846 34978 ft 486 kts 120°
2026-04-23 11:38 42.95068 28.37727 34988 ft 494 kts 120°
2026-04-23 11:38 42.91375 28.45735 34989 ft 505 kts 120°
2026-04-23 11:39 42.87612 28.53867 34990 ft 513 kts 120°
2026-04-23 11:39 42.83758 28.62174 34986 ft 518 kts 121°
2026-04-23 11:40 42.79937 28.70382 34969 ft 510 kts 121°
2026-04-23 11:40 42.76124 28.78552 34980 ft 510 kts 121°
2026-04-23 11:41 42.72328 28.86666 34996 ft 512 kts 121°
2026-04-23 11:41 42.68485 28.94858 34994 ft 514 kts 121°
2026-04-23 11:42 42.64620 29.03076 34992 ft 516 kts 121°
2026-04-23 11:42 42.60769 29.11238 34998 ft 516 kts 122°
2026-04-23 11:43 42.56909 29.19493 34980 ft 516 kts 118°
2026-04-23 11:43 42.53958 29.28294 34997 ft 514 kts 109°
2026-04-23 11:44 42.51487 29.37433 34994 ft 516 kts 109°
2026-04-23 11:44 42.48984 29.46526 34991 ft 518 kts 110°
2026-04-23 11:45 42.46418 29.55681 34999 ft 520 kts 110°
2026-04-23 11:45 42.43822 29.64859 34991 ft 521 kts 111°
2026-04-23 11:46 42.41232 29.73982 34989 ft 522 kts 111°
2026-04-23 11:46 42.38617 29.83170 34992 ft 523 kts 111°
2026-04-23 11:47 42.36009 29.92309 34995 ft 523 kts 111°
2026-04-23 11:47 42.33373 30.01510 34992 ft 523 kts 111°
2026-04-23 11:48 42.30743 30.10654 34995 ft 524 kts 111°
2026-04-23 11:48 42.28091 30.19844 34989 ft 524 kts 111°
2026-04-23 11:49 42.25444 30.28982 34988 ft 525 kts 112°
2026-04-23 11:49 42.22764 30.38201 34997 ft 527 kts 112°
2026-04-23 11:50 42.20074 30.47420 34994 ft 528 kts 112°
2026-04-23 11:50 42.17387 30.56602 34986 ft 529 kts 112°
2026-04-23 11:51 42.14664 30.65868 35007 ft 531 kts 112°
2026-04-23 11:51 42.11944 30.75089 34997 ft 533 kts 112°
2026-04-23 11:52 42.09191 30.84395 34992 ft 535 kts 113°
2026-04-23 11:52 42.06422 30.93716 35003 ft 536 kts 113°
2026-04-23 11:53 42.03653 31.03006 34994 ft 537 kts 113°
2026-04-23 11:53 42.00860 31.12341 34989 ft 537 kts 114°
2026-04-23 11:54 41.98072 31.21629 35002 ft 538 kts 114°
2026-04-23 11:54 41.95257 31.30972 34992 ft 539 kts 114°
2026-04-23 11:55 41.92429 31.40326 34983 ft 540 kts 114°
2026-04-23 11:55 41.89608 31.49622 35006 ft 541 kts 115°
2026-04-23 11:56 41.86756 31.58987 35003 ft 542 kts 115°
2026-04-23 11:56 41.83909 31.68301 34997 ft 543 kts 115°
2026-04-23 11:57 41.81032 31.77683 34990 ft 544 kts 115°
2026-04-23 11:57 41.78142 31.87073 34998 ft 545 kts 115°
2026-04-23 11:58 41.75231 31.96500 35005 ft 546 kts 115°
2026-04-23 11:58 41.72331 32.05858 35007 ft 547 kts 115°
2026-04-23 11:59 41.69398 32.15291 35011 ft 547 kts 115°
2026-04-23 11:59 41.66482 32.24649 35006 ft 547 kts 115°
2026-04-23 12:00 41.63824 32.34228 34986 ft 549 kts 113°
2026-04-23 12:00 41.61173 32.43803 35012 ft 549 kts 114°
2026-04-23 12:01 41.58477 32.53300 34979 ft 550 kts 114°
2026-04-23 12:01 41.55754 32.62861 34954 ft 551 kts 114°
2026-04-23 12:02 41.53020 32.72437 34963 ft 552 kts 114°
2026-04-23 12:02 41.50288 32.81977 34965 ft 553 kts 115°
2026-04-23 12:03 41.47533 32.91562 34940 ft 554 kts 115°
2026-04-23 12:03 41.44652 33.01034 34912 ft 551 kts 120°
2026-04-23 12:04 41.40969 33.09935 34931 ft 548 kts 124°
2026-04-23 12:04 41.37834 33.17303 34917 ft 550 kts 124°
2026-04-23 12:05 41.33534 33.27718 34924 ft 554 kts 123°
2026-04-23 12:05 41.30530 33.35274 34917 ft 556 kts 123°
2026-04-23 12:06 41.26897 33.44382 34907 ft 557 kts 123°
2026-04-23 12:06 41.21469 33.58104 34909 ft 559 kts 123°
2026-04-23 12:07 41.17871 33.67173 34883 ft 559 kts 124°
2026-04-23 12:07 41.14221 33.76331 34900 ft 558 kts 124°
2026-04-23 12:08 41.10589 33.85404 34909 ft 559 kts 124°
2026-04-23 12:08 41.06932 33.94517 34887 ft 559 kts 124°
2026-04-23 12:09 41.03291 34.03564 34918 ft 559 kts 124°
2026-04-23 12:09 40.99617 34.12657 34913 ft 559 kts 124°
2026-04-23 12:10 40.95944 34.21726 34893 ft 558 kts 124°
2026-04-23 12:10 40.92294 34.30713 34903 ft 557 kts 124°
2026-04-23 12:11 40.88613 34.39747 34905 ft 557 kts 125°
2026-04-23 12:11 40.84949 34.48715 34924 ft 555 kts 125°
2026-04-23 12:12 40.81263 34.57709 34903 ft 555 kts 125°
2026-04-23 12:12 40.77580 34.66668 34921 ft 554 kts 125°
2026-04-23 12:13 40.73914 34.75549 34911 ft 554 kts 126°
2026-04-23 12:13 40.70125 34.84425 34908 ft 553 kts 126°
2026-04-23 12:14 40.66324 34.93166 34911 ft 552 kts 126°
2026-04-23 12:14 40.62503 35.01963 34915 ft 551 kts 126°
2026-04-23 12:15 40.58696 35.10740 34920 ft 551 kts 127°
2026-04-23 12:15 40.54917 35.19441 34904 ft 550 kts 127°
2026-04-23 12:16 40.51109 35.28177 34927 ft 549 kts 127°
2026-04-23 12:16 40.47318 35.36848 34930 ft 549 kts 127°
2026-04-23 12:17 40.43507 35.45538 34915 ft 549 kts 127°
2026-04-23 12:17 40.39683 35.54237 34939 ft 549 kts 127°
2026-04-23 12:18 40.35868 35.62888 34934 ft 550 kts 127°
2026-04-23 12:18 40.32030 35.71571 34930 ft 549 kts 127°
2026-04-23 12:19 40.28211 35.80187 34947 ft 547 kts 127°
2026-04-23 12:19 40.24375 35.88813 34964 ft 546 kts 127°
2026-04-23 12:20 40.20569 35.97349 34938 ft 546 kts 127°
2026-04-23 12:20 40.16728 36.05936 34931 ft 546 kts 127°
2026-04-23 12:21 40.12894 36.14486 34924 ft 546 kts 127°
2026-04-23 12:21 40.09043 36.23055 34923 ft 545 kts 127°
2026-04-23 12:22 40.05194 36.31591 34913 ft 544 kts 127°
2026-04-23 12:22 40.01368 36.40052 34878 ft 545 kts 127°
2026-04-23 12:23 39.97502 36.48578 34890 ft 545 kts 127°
2026-04-23 12:23 39.93647 36.57061 34871 ft 546 kts 127°
2026-04-23 12:24 39.89758 36.65593 34861 ft 547 kts 127°
2026-04-23 12:24 39.85864 36.74116 34880 ft 546 kts 127°
2026-04-23 12:25 39.81988 36.82574 34865 ft 546 kts 127°
2026-04-23 12:25 39.78089 36.91075 34881 ft 545 kts 127°
2026-04-23 12:26 39.74300 36.99550 34885 ft 546 kts 126°
2026-04-23 12:26 39.70501 37.08127 34862 ft 546 kts 126°
2026-04-23 12:27 39.66715 37.16612 34851 ft 545 kts 127°
2026-04-23 12:27 39.62890 37.25130 34837 ft 546 kts 127°
2026-04-23 12:28 39.59056 37.33653 34799 ft 546 kts 127°
2026-04-23 12:28 39.55220 37.42124 34809 ft 546 kts 127°
2026-04-23 12:29 39.51367 37.50549 34823 ft 546 kts 127°
2026-04-23 12:29 39.47489 37.59021 34813 ft 547 kts 127°
2026-04-23 12:30 39.43598 37.67503 34811 ft 548 kts 127°
2026-04-23 12:30 39.39708 37.75949 34824 ft 549 kts 127°
2026-04-23 12:31 39.35780 37.84460 34806 ft 549 kts 127°
2026-04-23 12:31 39.31882 37.92892 34820 ft 549 kts 127°
2026-04-23 12:32 39.27946 38.01381 34794 ft 548 kts 127°
2026-04-23 12:32 39.24039 38.09772 34809 ft 548 kts 127°
2026-04-23 12:33 39.20092 38.18229 34821 ft 550 kts 127°
2026-04-23 12:33 39.16160 38.26641 34806 ft 551 kts 127°
2026-04-23 12:34 39.12217 38.35058 34832 ft 552 kts 127°
2026-04-23 12:34 39.08229 38.43543 34845 ft 552 kts 127°
2026-04-23 12:35 39.04265 38.51956 34838 ft 551 kts 127°
2026-04-23 12:35 39.00275 38.60395 34822 ft 550 kts 127°
2026-04-23 12:36 38.96282 38.68812 34857 ft 550 kts 127°
2026-04-23 12:36 38.92324 38.77162 34862 ft 550 kts 127°
2026-04-23 12:37 38.88310 38.85591 34870 ft 551 kts 127°
2026-04-23 12:37 38.84328 38.93929 34853 ft 551 kts 127°
2026-04-23 12:38 38.80329 39.02345 34887 ft 551 kts 127°
2026-04-23 12:38 38.76366 39.10711 34907 ft 551 kts 127°
2026-04-23 12:39 38.72371 39.19125 34895 ft 551 kts 126°
2026-04-23 12:39 38.69036 39.27952 34928 ft 558 kts 114°
2026-04-23 12:40 38.66430 39.37329 34922 ft 558 kts 113°
2026-04-23 12:40 38.63764 39.46657 34920 ft 558 kts 115°
2026-04-23 12:41 38.60158 39.55298 34949 ft 545 kts 131°
2026-04-23 12:41 38.55215 39.62445 34935 ft 533 kts 144°
2026-04-23 12:42 38.49710 39.68772 34935 ft 531 kts 144°
2026-04-23 12:42 38.44227 39.75096 34940 ft 531 kts 144°
2026-04-23 12:43 38.38813 39.81404 34937 ft 531 kts 144°
2026-04-23 12:43 38.33385 39.87752 34941 ft 531 kts 144°
2026-04-23 12:44 38.27925 39.94126 34927 ft 532 kts 143°
2026-04-23 12:44 38.22451 40.00499 34951 ft 533 kts 143°
2026-04-23 12:45 38.16962 40.06871 34936 ft 534 kts 143°
2026-04-23 12:45 38.11497 40.13202 34930 ft 534 kts 143°
2026-04-23 12:46 38.05998 40.19560 34951 ft 534 kts 143°
2026-04-23 12:46 38.00544 40.25852 34930 ft 534 kts 143°
2026-04-23 12:47 37.95034 40.32195 34948 ft 534 kts 144°
2026-04-23 12:47 37.89500 40.38505 34939 ft 534 kts 144°
2026-04-23 12:48 37.83979 40.44815 34938 ft 534 kts 143°
2026-04-23 12:48 37.78503 40.51087 34952 ft 533 kts 143°
2026-04-23 12:49 37.73012 40.57364 34938 ft 533 kts 143°
2026-04-23 12:49 37.67501 40.63645 34938 ft 533 kts 144°
2026-04-23 12:50 37.61981 40.69919 34941 ft 532 kts 144°
2026-04-23 12:50 37.56495 40.76141 34939 ft 532 kts 143°
2026-04-23 12:51 37.50976 40.82390 34941 ft 532 kts 144°
2026-04-23 12:51 37.45454 40.88629 34929 ft 532 kts 143°
2026-04-23 12:52 37.39980 40.94801 34936 ft 531 kts 144°
2026-04-23 12:52 37.34487 41.00981 34936 ft 530 kts 144°
2026-04-23 12:53 37.28980 41.07164 34925 ft 530 kts 144°
2026-04-23 12:53 37.23465 41.13343 34930 ft 529 kts 144°
2026-04-23 12:54 37.17993 41.19463 34929 ft 529 kts 144°
2026-04-23 12:54 37.12507 41.25584 34930 ft 529 kts 144°
2026-04-23 12:55 37.07022 41.31693 34917 ft 529 kts 143°
2026-04-23 12:55 37.02430 41.36798 34916 ft 529 kts 143°
2026-04-23 12:56 36.96919 41.42914 34924 ft 528 kts 144°
2026-04-23 12:56 36.91434 41.48986 34914 ft 528 kts 143°
2026-04-23 12:57 36.85916 41.55085 34922 ft 528 kts 143°
2026-04-23 12:57 36.80431 41.61134 34908 ft 529 kts 143°
2026-04-23 12:58 36.74909 41.67211 34923 ft 529 kts 143°
2026-04-23 12:58 36.69414 41.73249 34924 ft 529 kts 143°
2026-04-23 12:59 36.63865 41.79333 34914 ft 529 kts 143°
2026-04-23 12:59 36.58372 41.85344 34933 ft 529 kts 143°
2026-04-23 13:00 36.52842 41.91382 34932 ft 529 kts 143°
2026-04-23 13:00 36.47304 41.97417 34930 ft 528 kts 143°
2026-04-23 13:01 36.41769 42.03439 34924 ft 529 kts 143°
2026-04-23 13:01 36.36226 42.09456 34927 ft 529 kts 143°
2026-04-23 13:02 36.30711 42.15432 34929 ft 529 kts 143°
2026-04-23 13:02 36.25153 42.21441 34919 ft 529 kts 143°
2026-04-23 13:03 36.19634 42.27397 34926 ft 529 kts 143°
2026-04-23 13:03 36.14073 42.33387 34925 ft 529 kts 143°
2026-04-23 13:04 36.08534 42.39342 34908 ft 529 kts 143°
2026-04-23 13:04 36.02977 42.45305 34906 ft 528 kts 144°
2026-04-23 13:05 35.97445 42.51228 34917 ft 528 kts 144°
2026-04-23 13:05 35.91872 42.57184 34916 ft 529 kts 144°
2026-04-23 13:06 35.83536 42.66073 34911 ft 529 kts 144°
2026-04-23 13:07 35.77984 42.71978 34925 ft 530 kts 144°
2026-04-23 13:07 35.72382 42.77924 34898 ft 530 kts 144°
2026-04-23 13:08 35.66818 42.83818 34913 ft 531 kts 144°
2026-04-23 13:08 35.61204 42.89756 34914 ft 531 kts 144°
2026-04-23 13:09 35.55581 42.95692 34913 ft 532 kts 144°
2026-04-23 13:09 35.49981 43.01591 34923 ft 532 kts 144°
2026-04-23 13:10 35.44384 43.07477 34901 ft 533 kts 145°
2026-04-23 13:10 35.38747 43.13394 34917 ft 532 kts 145°
2026-04-23 13:11 35.33130 43.19276 34905 ft 533 kts 145°
2026-04-23 13:11 35.27471 43.25192 34916 ft 534 kts 146°
2026-04-23 13:12 35.21832 43.31076 34924 ft 535 kts 146°
2026-04-23 13:12 35.16150 43.36994 34925 ft 536 kts 146°
2026-04-23 13:13 35.10451 43.42919 34918 ft 537 kts 146°
2026-04-23 13:13 35.04793 43.48791 34921 ft 537 kts 146°
2026-04-23 13:14 34.99096 43.54692 34931 ft 537 kts 146°
2026-04-23 13:14 34.93377 43.60602 34928 ft 538 kts 146°
2026-04-23 13:15 34.87685 43.66475 34921 ft 539 kts 146°
2026-04-23 13:15 34.81940 43.72390 34937 ft 539 kts 146°
2026-04-23 13:16 34.76223 43.78266 34929 ft 540 kts 146°
2026-04-23 13:16 34.70462 43.84177 34928 ft 541 kts 146°
2026-04-23 13:17 34.64725 43.90052 34939 ft 540 kts 147°
2026-04-23 13:17 34.58965 43.95938 34941 ft 541 kts 147°
2026-04-23 13:18 34.53229 44.01790 34937 ft 542 kts 147°
2026-04-23 13:18 34.47437 44.07687 34928 ft 542 kts 147°
2026-04-23 13:19 34.41648 44.13572 34933 ft 542 kts 147°
2026-04-23 13:19 34.35855 44.19449 34937 ft 542 kts 147°
2026-04-23 13:20 34.30094 44.25283 34921 ft 542 kts 147°
2026-04-23 13:20 34.24310 44.31129 34950 ft 541 kts 147°
2026-04-23 13:21 34.18519 44.36970 34935 ft 541 kts 147°
2026-04-23 13:21 34.12766 44.42763 34934 ft 541 kts 147°
2026-04-23 13:22 34.06985 44.48573 34943 ft 540 kts 147°
2026-04-23 13:22 34.01198 44.54379 34949 ft 541 kts 147°
2026-04-23 13:23 33.95415 44.60171 34941 ft 540 kts 147°
2026-04-23 13:23 33.89662 44.65922 34938 ft 540 kts 147°
2026-04-23 13:24 33.83870 44.71701 34936 ft 540 kts 147°
2026-04-23 13:24 33.78107 44.77441 34964 ft 540 kts 147°
2026-04-23 13:25 33.72304 44.83211 34962 ft 540 kts 147°
2026-04-23 13:25 33.66538 44.88934 34961 ft 540 kts 147°
2026-04-23 13:26 33.60742 44.94678 34961 ft 539 kts 147°
2026-04-23 13:26 33.54944 45.00413 34976 ft 539 kts 147°
2026-04-23 13:27 33.49178 45.06106 34964 ft 540 kts 147°
2026-04-23 13:27 33.43375 45.11828 34952 ft 539 kts 147°
2026-04-23 13:28 33.37575 45.17540 34976 ft 538 kts 147°
2026-04-23 13:28 33.31810 45.23211 34965 ft 539 kts 147°
2026-04-23 13:29 33.25975 45.28849 34977 ft 537 kts 149°
2026-04-23 13:29 33.20125 45.34327 34944 ft 537 kts 149°
2026-04-23 13:30 33.14240 45.39837 34976 ft 536 kts 149°
2026-04-23 13:30 33.08402 45.45326 34971 ft 537 kts 149°
2026-04-23 13:31 33.02522 45.50858 34956 ft 537 kts 149°
2026-04-23 13:31 32.96633 45.56388 34967 ft 536 kts 149°
2026-04-23 13:32 32.90790 45.61864 34957 ft 536 kts 149°
2026-04-23 13:32 32.84925 45.67355 34957 ft 536 kts 149°
2026-04-23 13:33 32.79047 45.72830 34941 ft 536 kts 149°
2026-04-23 13:33 32.73209 45.78253 34973 ft 536 kts 149°
2026-04-23 13:34 32.67326 45.83721 34960 ft 536 kts 149°
2026-04-23 13:34 32.61442 45.89188 34950 ft 535 kts 149°
2026-04-23 13:35 32.55602 45.94608 34965 ft 535 kts 149°
2026-04-23 13:35 32.49722 46.00053 34942 ft 535 kts 149°
2026-04-23 13:36 32.43882 46.05452 34950 ft 535 kts 149°
2026-04-23 13:36 32.37999 46.10881 34932 ft 535 kts 149°
2026-04-23 13:37 32.32119 46.16299 34942 ft 535 kts 149°
2026-04-23 13:37 32.26278 46.21671 34946 ft 535 kts 150°
2026-04-23 13:38 32.20382 46.27085 34949 ft 536 kts 150°
2026-04-23 13:38 32.14482 46.32494 34947 ft 536 kts 150°
2026-04-23 13:39 32.08598 46.37879 34923 ft 536 kts 150°
2026-04-23 13:39 32.02733 46.43237 34948 ft 535 kts 150°
2026-04-23 13:40 31.96828 46.48623 34947 ft 536 kts 150°
2026-04-23 13:40 31.90935 46.53990 34933 ft 536 kts 150°
2026-04-23 13:41 31.85062 46.59329 34939 ft 535 kts 150°
2026-04-23 13:41 31.79147 46.64697 34931 ft 536 kts 150°
2026-04-23 13:42 31.73267 46.70025 34936 ft 536 kts 150°
2026-04-23 13:42 31.67346 46.75381 34942 ft 536 kts 150°
2026-04-23 13:43 31.61427 46.80728 34922 ft 536 kts 150°
2026-04-23 13:43 31.55546 46.86030 34937 ft 536 kts 150°
2026-04-23 13:44 31.49612 46.91371 34910 ft 536 kts 150°
2026-04-23 13:44 31.43713 46.96672 34932 ft 536 kts 150°
2026-04-23 13:45 31.38783 47.01096 34936 ft 536 kts 150°
2026-04-23 13:45 31.32840 47.06422 34920 ft 536 kts 150°
2026-04-23 13:46 31.26946 47.11696 34923 ft 537 kts 150°
2026-04-23 13:46 31.20999 47.17008 34891 ft 537 kts 151°
2026-04-23 13:47 31.15060 47.22304 34914 ft 537 kts 150°
2026-04-23 13:47 31.09154 47.27564 34915 ft 537 kts 150°
2026-04-23 13:48 31.03207 47.32853 34897 ft 538 kts 151°
2026-04-23 13:48 30.97265 47.38129 34908 ft 539 kts 151°
2026-04-23 13:49 30.91288 47.43434 34889 ft 539 kts 151°
2026-04-23 13:49 30.85308 47.48730 34911 ft 541 kts 151°
2026-04-23 13:50 30.79510 47.54447 34930 ft 548 kts 146°
2026-04-23 13:50 30.73875 47.60382 34936 ft 549 kts 146°
2026-04-23 13:51 30.68199 47.66357 34919 ft 548 kts 146°
2026-04-23 13:51 30.62565 47.72243 34940 ft 547 kts 146°
2026-04-23 13:52 30.56886 47.78146 34939 ft 547 kts 147°
2026-04-23 13:52 30.51216 47.84029 34906 ft 548 kts 146°
2026-04-23 13:53 30.45527 47.89928 34875 ft 549 kts 147°
2026-04-23 13:53 30.39811 47.95845 34893 ft 550 kts 147°
2026-04-23 13:54 30.34084 48.01764 34902 ft 552 kts 147°
2026-04-23 13:54 30.28376 48.07655 34885 ft 553 kts 147°
2026-04-23 13:55 30.22620 48.13586 34900 ft 554 kts 147°
2026-04-23 13:55 30.16860 48.19513 34869 ft 554 kts 147°
2026-04-23 13:56 30.11096 48.25433 34904 ft 555 kts 147°
2026-04-23 13:56 30.05315 48.31363 34897 ft 555 kts 147°
2026-04-23 13:57 29.99570 48.37251 34886 ft 554 kts 148°
2026-04-23 13:57 29.93788 48.43171 34900 ft 554 kts 148°
2026-04-23 13:58 29.87891 48.48827 34902 ft 544 kts 154°
2026-04-23 13:58 29.81536 48.53196 34911 ft 527 kts 164°
2026-04-23 13:59 29.74920 48.56913 34922 ft 527 kts 164°
2026-04-23 13:59 29.68335 48.60665 34878 ft 528 kts 163°
2026-04-23 14:00 29.62870 48.63824 34905 ft 528 kts 163°
2026-04-23 14:00 29.55237 48.68245 34920 ft 528 kts 163°
2026-04-23 14:01 29.48665 48.72043 34892 ft 528 kts 163°
2026-04-23 14:01 29.42083 48.75837 34910 ft 528 kts 163°
2026-04-23 14:02 29.35493 48.79620 34914 ft 529 kts 163°
2026-04-23 14:02 29.28940 48.83383 34910 ft 529 kts 163°
2026-04-23 14:03 29.22341 48.87180 34919 ft 530 kts 163°
2026-04-23 14:03 29.15781 48.91158 34923 ft 538 kts 158°
2026-04-23 14:04 29.09723 48.96321 34917 ft 553 kts 148°
2026-04-23 14:04 29.03908 49.02133 34926 ft 553 kts 148°
2026-04-23 14:05 28.98117 49.07853 34897 ft 553 kts 148°
2026-04-23 14:05 28.92259 49.13556 34931 ft 552 kts 148°
2026-04-23 14:06 28.86395 49.19264 34928 ft 553 kts 148°
2026-04-23 14:06 28.80683 49.25084 34903 ft 554 kts 146°
2026-04-23 14:07 28.74978 49.30993 34921 ft 552 kts 146°
2026-04-23 14:07 28.66420 49.39757 34922 ft 550 kts 146°
2026-04-23 14:08 28.61027 49.45915 34932 ft 556 kts 137°
2026-04-23 14:08 28.56496 49.53168 34929 ft 566 kts 127°
2026-04-23 14:09 28.52505 49.60906 34926 ft 567 kts 127°
2026-04-23 14:09 28.48490 49.68571 34914 ft 566 kts 127°
2026-04-23 14:10 28.44411 49.76058 34925 ft 562 kts 132°
2026-04-23 14:10 28.39314 49.82603 34933 ft 548 kts 145°
2026-04-23 14:11 28.33348 49.87817 34930 ft 535 kts 155°
2026-04-23 14:11 28.27153 49.92388 34928 ft 536 kts 155°
2026-04-23 14:12 28.20892 49.97051 34931 ft 538 kts 154°
2026-04-23 14:12 28.14697 50.01732 34919 ft 538 kts 154°
2026-04-23 14:13 28.08461 50.06461 34913 ft 539 kts 154°
2026-04-23 14:13 28.02205 50.11195 34918 ft 539 kts 154°
2026-04-23 14:14 27.95996 50.15882 34913 ft 539 kts 154°
2026-04-23 14:14 27.89740 50.20595 34912 ft 539 kts 154°
2026-04-23 14:15 27.83520 50.25277 34912 ft 538 kts 154°
2026-04-23 14:15 27.77277 50.29971 34923 ft 537 kts 154°
2026-04-23 14:16 27.71078 50.34627 34911 ft 537 kts 154°
2026-04-23 14:16 27.64831 50.39317 34890 ft 537 kts 154°
2026-04-23 14:17 27.58649 50.43989 34920 ft 539 kts 153°
2026-04-23 14:17 27.52456 50.48793 34921 ft 540 kts 153°
2026-04-23 14:18 27.46328 50.53537 34909 ft 540 kts 153°
2026-04-23 14:18 27.40108 50.58297 34909 ft 540 kts 153°
2026-04-23 14:19 27.33887 50.63026 34906 ft 540 kts 153°
2026-04-23 14:19 27.27650 50.67778 34892 ft 540 kts 153°
2026-04-23 14:20 27.21446 50.72511 34907 ft 541 kts 153°
2026-04-23 14:20 27.15253 50.77369 34904 ft 546 kts 148°
2026-04-23 14:21 27.09642 50.83253 34889 ft 556 kts 139°
2026-04-23 14:21 27.04300 50.89477 34899 ft 555 kts 140°
2026-04-23 14:22 26.99130 50.95970 34891 ft 561 kts 132°
2026-04-23 14:22 26.94919 51.03341 34896 ft 566 kts 124°
2026-04-23 14:23 26.90863 51.10898 34881 ft 565 kts 125°
2026-04-23 14:23 26.87018 51.18600 34887 ft 568 kts 117°
2026-04-23 14:24 26.84287 51.26907 34891 ft 571 kts 110°
2026-04-23 14:24 26.81857 51.35405 34882 ft 572 kts 110°
2026-04-23 14:25 26.79372 51.43855 34864 ft 571 kts 110°
2026-04-23 14:25 26.76844 51.52285 34875 ft 571 kts 110°
2026-04-23 14:26 26.74337 51.60649 34878 ft 570 kts 110°
2026-04-23 14:26 26.71792 51.69087 34881 ft 570 kts 111°
2026-04-23 14:27 26.69239 51.77477 34871 ft 569 kts 111°
2026-04-23 14:27 26.66712 51.85836 34867 ft 568 kts 110°
2026-04-23 14:28 26.64149 51.94185 34889 ft 567 kts 111°
2026-04-23 14:28 26.61445 52.02425 34889 ft 566 kts 112°
2026-04-23 14:29 26.58705 52.10687 34886 ft 565 kts 112°
2026-04-23 14:29 26.55995 52.18947 34875 ft 565 kts 112°
2026-04-23 14:30 26.53296 52.27204 34887 ft 565 kts 112°
2026-04-23 14:30 26.50611 52.35399 34891 ft 565 kts 112°
2026-04-23 14:31 26.47917 52.43599 34881 ft 564 kts 112°
2026-04-23 14:31 26.45210 52.51823 34877 ft 563 kts 112°
2026-04-23 14:32 26.42517 52.59996 34868 ft 563 kts 112°
2026-04-23 14:32 26.39811 52.68200 34874 ft 563 kts 112°
2026-04-23 14:33 26.37579 52.75036 34875 ft 563 kts 111°
2026-04-23 14:33 26.34888 52.83234 34879 ft 562 kts 112°
2026-04-23 14:34 26.32157 52.91368 34866 ft 562 kts 112°
2026-04-23 14:34 26.29406 52.99537 34855 ft 562 kts 112°
2026-04-23 14:35 26.26663 53.07711 34871 ft 562 kts 112°
2026-04-23 14:35 26.23923 53.15875 34862 ft 562 kts 112°
2026-04-23 14:36 26.21199 53.23982 34863 ft 562 kts 112°
2026-04-23 14:36 26.18441 53.32152 34853 ft 561 kts 112°
2026-04-23 14:37 26.15370 53.40074 34854 ft 560 kts 116°
2026-04-23 14:37 26.12097 53.47946 34840 ft 554 kts 116°
2026-04-23 14:38 26.10506 53.51801 34835 ft 543 kts 116°
2026-04-23 14:38 26.08963 53.55568 34838 ft 539 kts 116°
2026-04-23 14:38 26.05896 53.63111 34488 ft 518 kts 116°
2026-04-23 14:39 26.04446 53.66683 33898 ft 503 kts 116°
2026-04-23 14:39 26.02990 53.70258 32748 ft 512 kts 116°
2026-04-23 14:39 26.01499 53.73905 31495 ft 524 kts 116°
2026-04-23 14:39 25.99999 53.77597 30160 ft 518 kts 116°
2026-04-23 14:40 25.98563 53.81230 28476 ft 520 kts 115°
2026-04-23 14:40 25.97117 53.84944 27658 ft 520 kts 115°
2026-04-23 14:40 25.95690 53.88618 27006 ft 514 kts 115°
2026-04-23 14:40 25.94277 53.92240 26365 ft 509 kts 116°
2026-04-23 14:41 25.92885 53.95783 25759 ft 503 kts 116°
2026-04-23 14:41 25.91484 53.99326 25141 ft 499 kts 117°
2026-04-23 14:41 25.89999 54.02808 24500 ft 494 kts 119°
2026-04-23 14:41 25.88454 54.06204 23879 ft 491 kts 120°
2026-04-23 14:42 25.86908 54.09571 23231 ft 488 kts 120°
2026-04-23 14:42 25.85390 54.12928 22537 ft 484 kts 119°
2026-04-23 14:42 25.83898 54.16272 21899 ft 479 kts 119°
2026-04-23 14:42 25.82453 54.19534 21291 ft 475 kts 118°
2026-04-23 14:43 25.81163 54.22900 20691 ft 472 kts 112°
2026-04-23 14:43 25.80103 54.26342 20099 ft 468 kts 111°
2026-04-23 14:43 25.79075 54.29757 19512 ft 463 kts 111°
2026-04-23 14:43 25.78051 54.33147 18923 ft 459 kts 111°
2026-04-23 14:44 25.77031 54.36494 18320 ft 456 kts 111°
2026-04-23 14:44 25.76019 54.39790 17674 ft 453 kts 111°
2026-04-23 14:44 25.75002 54.43082 17040 ft 448 kts 112°
2026-04-23 14:44 25.73993 54.46345 16454 ft 443 kts 112°
2026-04-23 14:45 25.72998 54.49562 15867 ft 438 kts 112°
2026-04-23 14:45 25.72013 54.52744 15293 ft 433 kts 112°
2026-04-23 14:45 25.71036 54.55895 14723 ft 429 kts 112°
2026-04-23 14:45 25.70083 54.58962 14200 ft 423 kts 113°
2026-04-23 14:46 25.69119 54.62033 13680 ft 418 kts 113°
2026-04-23 14:46 25.68148 54.65063 13222 ft 410 kts 114°
2026-04-23 14:46 25.67218 54.67950 13072 ft 396 kts 114°
2026-04-23 14:46 25.66309 54.70776 12895 ft 383 kts 114°
2026-04-23 14:47 25.65426 54.73522 12720 ft 370 kts 114°
2026-04-23 14:47 25.64581 54.76157 12550 ft 350 kts 114°
2026-04-23 14:47 25.63793 54.78623 12428 ft 332 kts 114°
2026-04-23 14:47 25.63025 54.81009 12224 ft 325 kts 114°
2026-04-23 14:48 25.62274 54.83334 11822 ft 325 kts 114°
2026-04-23 14:48 25.61509 54.85696 11390 ft 326 kts 114°
2026-04-23 14:48 25.60704 54.88049 10974 ft 326 kts 117°
2026-04-23 14:48 25.59795 54.90349 10559 ft 326 kts 118°
2026-04-23 14:49 25.58862 54.92648 10257 ft 323 kts 118°
2026-04-23 14:49 25.57978 54.94851 10174 ft 311 kts 118°
2026-04-23 14:49 25.57118 54.97015 10115 ft 300 kts 118°
2026-04-23 14:49 25.56294 54.99102 10008 ft 291 kts 118°
2026-04-23 14:50 25.55492 55.01132 9852 ft 284 kts 118°
2026-04-23 14:50 25.54712 55.03100 9576 ft 282 kts 118°
2026-04-23 14:50 25.53832 55.05041 9234 ft 279 kts 124°
2026-04-23 14:50 25.52855 55.06894 8935 ft 277 kts 125°
2026-04-23 14:51 25.51872 55.08729 8618 ft 276 kts 125°
2026-04-23 14:51 25.50914 55.10534 8320 ft 275 kts 124°
2026-04-23 14:51 25.49957 55.12360 8080 ft 270 kts 124°
2026-04-23 14:51 25.49052 55.14098 8030 ft 264 kts 124°
2026-04-23 14:52 25.48122 55.15880 8026 ft 270 kts 124°
2026-04-23 14:52 25.47168 55.17709 8029 ft 276 kts 124°
2026-04-23 14:52 25.46214 55.19537 8020 ft 277 kts 124°
2026-04-23 14:52 25.45104 55.21249 8012 ft 270 kts 136°
2026-04-23 14:53 25.43839 55.22766 8016 ft 268 kts 138°
2026-04-23 14:53 25.42555 55.24261 8000 ft 267 kts 138°
2026-04-23 14:53 25.41290 55.25758 7997 ft 266 kts 137°
2026-04-23 14:53 25.40040 55.27265 8002 ft 265 kts 136°
2026-04-23 14:54 25.38813 55.28760 8012 ft 265 kts 136°
2026-04-23 14:54 25.37575 55.30274 8009 ft 261 kts 136°
2026-04-23 14:54 25.36378 55.31741 8006 ft 251 kts 136°
2026-04-23 14:54 25.35143 55.33049 8009 ft 242 kts 151°
2026-04-23 14:55 25.33683 55.33971 7996 ft 245 kts 158°
2026-04-23 14:55 25.32171 55.34807 7840 ft 245 kts 158°
2026-04-23 14:55 25.30662 55.35643 7712 ft 240 kts 158°
2026-04-23 14:55 25.29181 55.36477 7615 ft 237 kts 157°
2026-04-23 14:56 25.27712 55.37316 7538 ft 238 kts 157°
2026-04-23 14:56 25.26248 55.38161 7453 ft 238 kts 157°
2026-04-23 14:56 25.24773 55.39019 7352 ft 239 kts 156°
2026-04-23 14:56 25.23294 55.39881 7092 ft 243 kts 156°
2026-04-23 14:57 25.21780 55.40763 6679 ft 249 kts 156°
2026-04-23 14:57 25.20229 55.41667 6206 ft 257 kts 156°
2026-04-23 14:57 25.18631 55.42600 5776 ft 262 kts 155°
2026-04-23 14:57 25.17010 55.43553 5353 ft 266 kts 155°
2026-04-23 14:58 25.15358 55.44520 4960 ft 270 kts 155°
2026-04-23 14:58 25.13716 55.45479 4641 ft 270 kts 155°
2026-04-23 14:58 25.12058 55.46449 4347 ft 267 kts 153°
2026-04-23 14:58 25.10678 55.47787 3914 ft 268 kts 125°
2026-04-23 14:59 25.09732 55.49551 3653 ft 265 kts 122°
2026-04-23 14:59 25.08777 55.51278 3404 ft 263 kts 122°
2026-04-23 14:59 25.07841 55.52987 3222 ft 255 kts 117°
2026-04-23 14:59 25.07443 55.54882 2791 ft 256 kts 86°
2026-04-23 15:00 25.07930 55.56674 2643 ft 243 kts 54°
2026-04-23 15:00 25.09112 55.57906 2456 ft 229 kts 24°
2026-04-23 15:00 25.10620 55.58263 2180 ft 220 kts 352°
2026-04-23 15:00 25.12050 55.57839 2101 ft 206 kts 341°
2026-04-23 15:01 25.13352 55.57209 2010 ft 207 kts 321°
2026-04-23 15:01 25.14316 55.56003 2043 ft 218 kts 308°
2026-04-23 15:01 25.15201 55.54626 2033 ft 220 kts 304°
2026-04-23 15:01 25.16001 55.53225 1990 ft 207 kts 302°
2026-04-23 15:02 25.16481 55.52352 1958 ft 192 kts 303°
2026-04-23 15:02 25.17404 55.50676 2008 ft 180 kts 305°
2026-04-23 15:02 25.18005 55.49591 1995 ft 157 kts 306°
2026-04-23 15:02 25.18586 55.48544 1867 ft 165 kts 307°
2026-04-23 15:03 25.19178 55.47472 1686 ft 166 kts 308°
2026-04-23 15:03 25.19773 55.46393 1447 ft 162 kts 308°
2026-04-23 15:03 25.20357 55.45340 1212 ft 156 kts 307°
2026-04-23 15:03 25.20902 55.44386 972 ft 138 kts 305°
2026-04-23 15:04 25.21384 55.43500 806 ft 134 kts 306°
2026-04-23 15:04 25.21876 55.42605 726 ft 135 kts 306°
2026-04-23 15:04 25.22363 55.41740 589 ft 133 kts 305°
2026-04-23 15:04 25.22834 55.40861 366 ft 127 kts 305°
2026-04-23 15:05 25.23266 55.40062 166 ft 116 kts 307°
2026-04-23 15:05 25.23665 55.39353 30 ft 108 kts 308°
2026-04-23 15:05 25.24016 55.38723 27 ft 75 kts 302°
2026-04-23 15:05 25.24222 55.38352 27 ft 58 kts 301°
2026-04-23 15:06 25.24381 55.38064 27 ft 22 kts 302°
2026-04-23 15:06 25.24402 55.38028 27 ft 26 kts 302°
2026-04-23 15:06 25.24389 55.37835 27 ft 36 kts 224°
2026-04-23 15:06 25.24322 55.37798 27 ft 0 kts 199°
2026-04-23 15:07 25.24321 55.37798 27 ft 1 kts 199°
2026-04-23 15:07 25.24299 55.37789 27 ft 9 kts 201°
2026-04-23 15:07 25.24271 55.37774 27 ft 1 kts 207°
2026-04-23 15:08 25.24259 55.37762 27 ft 4 kts 224°
2026-04-23 15:08 25.24259 55.37722 27 ft 8 kts 304°
2026-04-23 15:08 25.24302 55.37652 27 ft 15 kts 303°
2026-04-23 15:09 25.24439 55.37408 27 ft 20 kts 302°
2026-04-23 15:09 25.24510 55.37281 27 ft 20 kts 300°
2026-04-23 15:09 25.24580 55.37153 27 ft 20 kts 301°
2026-04-23 15:09 25.24651 55.37027 27 ft 18 kts 301°
2026-04-23 15:10 25.24695 55.36949 27 ft 18 kts 302°
2026-04-23 15:10 25.24769 55.36782 27 ft 18 kts 282°
2026-04-23 15:10 25.24806 55.36637 27 ft 21 kts 294°
2026-04-23 15:10 25.24882 55.36490 27 ft 23 kts 301°
2026-04-23 15:11 25.24969 55.36336 27 ft 25 kts 302°
2026-04-23 15:11 25.25060 55.36168 27 ft 26 kts 300°
2026-04-23 15:11 25.25155 55.35999 27 ft 26 kts 302°
2026-04-23 15:11 25.25252 55.35825 27 ft 26 kts 301°
2026-04-23 15:12 25.25347 55.35649 27 ft 26 kts 301°
2026-04-23 15:12 25.25443 55.35479 27 ft 26 kts 302°
2026-04-23 15:12 25.25539 55.35304 27 ft 26 kts 302°
2026-04-23 15:12 25.25637 55.35131 27 ft 26 kts 302°
2026-04-23 15:13 25.25730 55.34956 27 ft 26 kts 302°
2026-04-23 15:13 25.25824 55.34786 27 ft 26 kts 301°
2026-04-23 15:13 25.25913 55.34628 27 ft 26 kts 302°
2026-04-23 15:13 25.26007 55.34458 27 ft 26 kts 301°
2026-04-23 15:14 25.26096 55.34296 27 ft 18 kts 299°
2026-04-23 15:14 25.26052 55.34210 27 ft 0 kts 207°